Showing default

CENTISPACE-1 S12, 62581

Orbit data source: Space-Track

CENTISPACE-1 S12, 62581 is a payload satellite owned by Centispace (CN) in LEO that was launched on Mon, 13 Jan 2025 UTC via a JIELONG-3 launch vehicle from the Yellow Sea Launch Area, China (YSLA). Payloads include a variety of satellites, spacecraft, and rockets equipped with specific instruments for various scientific and technological missions. These include communications satellites like Starlink; space stations such as the ISS; scientific satellites like the Hubble; Earth observation satellites from companies like Planet Labs, Umbra, and HawkEye 360; GPS; miniature CubeSats for education and research; and military/defense satellites.

Loading next visibility...
CENTISPACE-1 S12 details
Identifier
62581, 2025-007G
Orbit
LEO
Last TLE update9 hours ago
Origin
Flag of CNCentispace (CN / PRC)
ManufacturerDFH Shenzhen
MissionOperational spacecraft
Bus & MotorWK01, Unknown motor
Mass160 kg wet, 160 kg dry
Launch date (UTC)
2025-01-13 (3 weeks ago)
Launch vehicle
JIELONG-3
Launch site
Yellow Sea Launch Area, China (YSLA)
Object type
Payload
Rocket body
Debris
Shape & HBRUnknown
Radar Cross SectionMedium (>0.1 m² and <1 m²)

Expand to show TLE details & history

TLE from 9 hours ago
0 CENTISPACE-1 S12
1 62581U 25007G   25035.78896469  .00003758  00000-0  57267-3 0  9991
2 62581  54.9782  35.5997 0015742   2.0719 358.0343 14.75865128  3359
Epoch: 2025-02-04T18:56Z
Definitive object data (Epoch: 2025-02-04T18:56:06.549Z)
Latitude-0.00003°
Longitude-23.61682°
Altitude632.428 km
Speed7.549 km/s
True Right ascension02h 22m 23s
True Declination0° 00' 00"
Sunlit
Object was in daylight at TLE epoch
Visualization TLE readout
Latitude-30.23632°
Longitude178.80138°
Altitude660.896 km
Speed7.522 km/s
Apparent Right ascension16h 50m 55s
Apparent Declination-35° 47' 42"
Sunlit
Object is in daylight
Visualization observer readout
Local Sidereal Time06:04:29
Azimuth79.968° E
Elevation-74.935°
Doppler factor1
Orbital elements
Apogee altitude653.425 km
Perigee altitude631.321 km
Semi-major axis7,020.51 km
Eccentricity0.0015742
Inclination54.9782°
RAAN35.5997°
Arg. of periapsis2.0719°
True anomaly358.0281°
Mean anomaly358.0343°
Eccentric anomaly358.0312°
Mean motion3.68969 °/min
BSTAR0.00057267
Orbital period97.57 mins
Loading maneuver chart data...
Loading historical data...
Loading historical data...
Loading historical data...
Loading historical data...
Loading historical data...
Loading historical data...
Loading historical data...

CENTISPACE-1 S12 Visibility forecast

Observer location: undefined°, undefined

Span
Click to sort rows by Start time (UTC) header in descending order
Start Az.
Max El. time (UTC)
Max El. Az.
Max El.
End time (UTC)
End Az.
4 mins2025-02-05 04:59:42.918Z315.556° NNW2025-02-05 05:01:42.918Z344.072° N15.034°2025-02-05 05:03:42.918Z12.595° NNE
6 mins2025-02-05 08:25:42.918Z349.816° N2025-02-05 08:27:42.918Z29.292° NE25.076°2025-02-05 08:31:42.918Z88.798° E
7 mins2025-02-05 10:06:42.918Z299.559° NW2025-02-05 10:09:42.918Z210.14° SW40.336°2025-02-05 10:13:42.918Z149.352° SSE
7 mins2025-02-06 01:59:42.918Z210.632° SW2025-02-06 02:02:42.918Z107.632° ESE42.146°2025-02-06 02:06:42.918Z52.19° ENE
6 mins2025-02-06 03:41:42.918Z287.942° WNW2025-02-06 03:44:42.918Z342.998° N22.926°2025-02-06 03:47:42.918Z26.209° NE
|